Location: Newark
(44.6303°N, 123.0961°W)
Time: 01:47:13
(UTC+00:00)

Envisat - Pass Details

Date: 01 February 2020
Orbit: 764 x 766 km, 98.1° (Epoch: 21 February)

Event Time Altitude Azimuth Distance (km) Brightness Sun altitude
Rises 13:33:29 0° 31° (NNE) 3,240 6.6 -21.2°
Reaches altitude 10° 13:36:50 10° 54° (NE) 2,308 6.2 -20.6°
Maximum altitude 13:39:42 15° 89° (E) 1,975 6.2 -20.1°
Drops below altitude 10° 13:42:33 10° 124° (ESE) 2,298 6.4 -19.6°
Sets 13:45:52 0° 147° (SSE) 3,217 6.8 -19.0°
